Theta_e
281 282 283 285 285 285 287 290 291 294 296 297 301 305 304 307 307 309 311 312 313 315 318 316 324 330 326 326 327 326 325 323 324 310 304 301 299 297 300 299 299 298 297
279 280 281 283 283 284 285 287 289 292 294 295 296 299 303 308 310 310 310 314 317 319 321 316 320 327 327 326 326 325 322 322 322 316 309 301 300 295 293 295 293 290 292
277 278 280 280 282 283 283 285 288 290 292 293 295 298 304 307 308 310 312 313 311 312 315 317 321 324 325 324 325 325 323 318 320 320 315 305 304 293 292 289 289 288 288
277 278 278 279 280 282 284 285 287 289 290 291 293 294 296 299 306 307 310 310 306 303 305 308 317 326 326 324 325 325 324 323 317 319 315 311 302 296 288 287 286 286 286
276 277 277 279 281 282 284 284 285 287 288 289 290 292 294 298 303 303 304 303 299 297 296 299 304 323 321 320 323 322 322 321 320 317 308 307 304 300 294 286 283 283 283
276 277 278 280 280 282 282 283 283 284 286 287 287 289 291 292 295 295 298 297 293 292 291 293 295 297 299 299 296 296 295 295 295 294 296 303 303 299 294 289 286 281 279
275 276 276 277 278 279 280 281 282 282 283 284 285 286 288 289 289 290 291 290 288 287 287 288 289 290 292 294 291 289 288 288 286 286 285 287 288 294 297 292 286 283 279
275 275 276 277 278 279 280 280 280 280 281 282 283 284 285 286 286 287 287 287 285 285 285 284 285 285 287 287 286 285 284 283 282 281 281 280 280 284 287 294 288 283 283
274 274 276 277 277 278 279 279 279 279 280 280 281 281 282 282 283 283 283 283 284 283 282 282 281 282 282 283 284 282 280 280 280 279 278 278 278 279 281 283 286 288 283
273 274 275 276 277 278 279 279 279 279 279 279 280 279 279 280 280 280 280 280 281 281 281 280 280 280 280 279 280 280 278 277 277 277 277 276 277 277 277 278 279 282 285
272 273 274 275 275 277 277 278 278 278 278 278 278 278 278 278 278 278 278 278 279 280 279 279 279 278 278 278 278 277 277 276 276 276 275 275 276 275 276 276 277 277 281
272 273 273 273 274 275 276 277 277 277 278 278 278 277 277 277 276 276 277 277 277 278 278 278 277 277 277 277 276 275 275 275 274 274 274 274 276 275 276 276 275 275 277
271 271 271 271 273 274 275 276 276 277 277 278 277 277 277 276 276 276 276 276 276 276 276 277 276 276 275 276 276 275 275 274 274 274 274 274 274 273 275 275 274 274 274
268 270 270 271 273 274 275 275 275 276 277 277 276 276 276 277 277 277 276 276 276 275 275 275 275 275 275 275 275 276 275 275 276 276 276 275 274 273 274 274 274 274 273
268 269 270 271 273 274 274 275 275 276 277 276 276 275 276 277 277 277 277 277 277 277 277 276 275 275 275 275 274 275 274 274 274 275 276 277 277 277 275 274 273 273 272
268 269 270 271 272 274 274 275 275 276 277 276 276 277 276 277 277 277 276 276 276 276 277 276 276 276 277 278 277 276 275 275 274 273 274 274 274 275 275 275 275 274 272
268 269 270 271 273 273 275 274 275 276 276 275 275 276 276 276 276 276 276 276 276 276 276 276 276 276 277 277 276 275 274 273 273 273 274 273 274 274 272 273 272 272 273
268 269 270 272 274 275 275 276 276 276 276 275 275 275 275 274 275 275 275 276 276 276 276 276 276 276 276 276 275 273 272 271 272 272 273 273 274 275 273 272 271 271 270
268 268 268 269 273 273 274 275 274 275 274 274 274 274 275 274 274 274 274 275 275 275 275 276 276 275 275 276 275 273 272 271 270 271 272 273 274 275 276 273 271 270 270
266 268 269 271 272 273 275 274 273 273 273 273 273 274 274 274 273 274 274 275 275 275 275 275 275 277 276 277 275 274 273 271 271 271 271 271 273 275 275 273 270 268 270
268 269 269 270 271 271 273 272 272 272 273 273 273 273 273 273 273 273 274 274 273 273 273 273 274 274 275 277 277 276 273 272 272 271 270 271 272 274 274 274 271 269 273
268 271 270 271 271 272 273 272 272 272 273 273 272 272 272 273 273 272 272 272 272 272 271 272 272 273 273 276 276 276 276 274 272 271 271 271 273 273 273 272 271 273 271
271 271 271 271 271 272 272 271 272 271 271 270 269 270 271 271 271 272 271 271 272 272 272 272 273 273 273 274 274 275 275 275 274 273 272 273 272 271 270 269 270 268 266
270 271 270 269 270 270 271 272 271 270 268 269 269 269 270 270 271 272 272 273 273 272 272 272 272 272 273 274 275 275 276 275 274 273 271 270 269 269 268 266 267 266 265
270 270 270 269 270 270 270 270 270 269 269 269 269 271 271 271 271 272 273 272 271 272 272 272 272 272 272 273 275 276 276 276 274 269 270 269 268 267 267 267 266 266 265
270 269 269 270 270 269 269 269 268 268 269 270 270 271 272 271 272 272 272 273 274 273 274 274 272 273 273 275 275 276 276 276 275 270 268 267 267 265 265 265 265 265 264
Wind_Speed
14 13 14 15 14 14 15 15 12 13 10 8 7 3 4 4 3 3 6 6 7 10 11 8 9 8 7 10 13 10 10 8 9 7 5 7 10 12 8 7 7 9 9
14 14 14 14 15 15 15 15 12 12 10 8 7 5 5 6 5 3 5 6 4 8 9 9 9 9 9 13 9 10 5 5 11 6 6 3 4 8 9 7 7 9 8
15 15 15 13 14 14 15 14 12 11 11 12 8 6 6 6 6 5 4 2 4 8 8 9 11 11 8 8 9 10 11 7 10 12 5 7 5 6 5 8 7 8 7
13 14 14 14 13 14 14 13 12 10 10 12 9 8 5 5 3 4 4 2 5 7 9 9 13 12 10 10 9 10 11 9 10 7 1 5 6 6 5 3 4 9 6
13 14 14 13 12 12 12 12 11 10 10 11 9 7 6 5 4 3 4 4 6 8 9 9 11 11 5 6 10 11 12 8 10 8 3 4 4 7 6 6 4 4 4
13 13 12 12 11 11 11 10 11 10 10 10 10 9 7 6 4 5 4 4 6 6 10 9 8 7 5 5 6 7 7 6 6 3 3 3 3 6 6 6 5 7 3
13 13 13 12 11 12 12 10 12 11 11 10 10 9 7 6 6 5 4 5 5 5 8 9 9 8 7 7 9 10 10 8 8 6 5 6 6 3 2 8 6 5 3
12 13 13 12 12 12 11 12 12 11 10 9 9 8 9 5 5 6 5 6 6 6 8 9 10 12 11 12 9 10 10 10 10 12 11 9 8 6 3 5 11 5 3
12 12 12 12 11 11 11 11 11 10 10 9 7 8 8 8 7 8 8 7 8 7 9 11 12 13 14 11 9 11 14 10 12 11 13 11 8 7 7 6 3 4 5
12 11 10 11 11 11 10 10 10 10 9 9 8 8 9 9 8 8 11 10 9 9 11 13 13 15 16 14 13 12 15 13 10 10 14 12 9 9 8 7 6 6 4
10 10 10 11 10 10 9 9 10 10 9 8 9 9 9 10 9 9 10 11 11 11 11 14 13 15 15 17 14 12 18 17 14 13 13 15 12 9 9 8 7 6 4
9 9 9 9 9 9 10 10 10 9 9 8 9 10 10 9 10 11 12 12 13 13 13 13 16 15 16 15 17 14 16 15 14 13 12 13 9 11 10 9 10 9 8
8 9 8 8 8 8 8 9 10 9 9 8 10 11 11 11 11 12 13 13 13 14 14 14 16 18 16 14 11 17 15 15 14 11 12 12 12 11 10 11 8 7 7
6 7 8 8 8 7 8 9 10 10 9 8 10 11 11 11 11 12 14 14 13 14 15 15 16 16 14 12 13 14 15 14 12 13 11 12 13 13 10 8 8 5 5
6 7 8 8 8 7 8 8 9 10 9 9 11 11 11 11 12 13 12 15 15 14 13 14 14 13 13 9 12 12 13 14 12 13 13 14 12 18 12 6 7 4 4
4 5 6 7 8 8 8 9 10 11 9 10 10 10 11 11 12 13 11 15 15 12 13 13 14 13 10 19 19 14 13 12 12 10 9 9 10 15 16 14 12 10 5
3 3 4 4 5 6 7 8 9 8 9 10 10 10 10 12 12 12 14 15 13 12 13 13 11 13 13 18 18 17 11 10 10 9 8 8 6 7 7 10 10 10 11
5 3 0 3 4 4 5 6 7 7 8 8 8 8 9 9 10 11 12 11 10 10 10 10 11 11 10 16 17 15 10 10 9 9 8 7 7 6 5 7 6 5 5
2 1 2 1 3 4 4 7 7 6 7 6 6 7 7 8 9 10 10 9 10 10 9 9 10 10 10 13 11 9 8 8 8 6 7 7 6 9 9 5 6 6 6
5 4 3 2 3 3 4 5 5 6 5 5 6 6 6 7 9 9 8 8 9 9 8 9 8 10 9 12 10 7 4 5 4 5 5 6 7 10 10 7 6 7 8
8 5 3 2 3 3 4 5 5 5 4 4 5 6 6 6 6 7 7 7 8 8 7 7 7 7 8 8 10 9 5 4 3 3 3 4 8 9 10 9 4 7 10
8 7 6 5 4 4 4 6 6 4 4 5 5 5 4 4 4 7 5 6 6 6 5 4 4 3 4 7 7 7 7 3 3 3 3 4 10 10 11 8 10 13 9
10 9 8 7 6 6 6 7 6 5 5 4 4 4 4 4 3 5 4 4 3 3 3 2 2 2 3 3 4 5 4 3 4 4 6 9 10 9 7 8 12 8 5
10 9 9 8 9 8 8 7 8 6 5 5 5 4 4 4 3 3 3 3 3 3 3 2 2 2 2 3 3 3 4 5 4 5 4 7 9 8 7 5 5 4 5
10 10 11 10 10 9 9 7 8 8 7 6 5 6 5 5 4 2 2 2 2 3 3 3 3 4 5 4 6 5 4 4 4 3 5 5 6 6 6 6 6 6 6
12 11 11 10 9 9 8 8 8 9 9 8 7 6 5 4 3 3 3 6 7 9 10 8 8 5 10 9 9 10 11 11 9 5 6 7 6 7 7 8 8 7 7
Wind_Direction
329 330 332 333 334 336 328 322 330 336 333 326 319 313 288 272 223 239 256 244 247 253 244 239 245 207 204 196 199 187 186 181 157 115 67 66 67 61 39 47 51 57 49
331 335 338 340 343 333 331 324 336 336 331 320 317 290 315 299 291 280 255 251 302 274 256 238 235 220 213 210 202 192 172 190 173 169 126 172 75 64 51 24 68 54 58
331 333 338 342 338 334 331 329 330 338 328 330 312 299 268 245 256 235 221 260 334 295 291 289 250 224 210 201 193 193 176 183 185 176 152 148 180 128 52 51 57 62 60
334 331 334 337 338 334 330 330 337 341 333 327 321 322 293 282 293 296 309 328 11 335 331 304 276 238 212 208 204 193 188 190 186 185 220 58 131 151 136 64 52 59 50
335 330 330 330 332 334 336 332 346 351 339 337 336 333 321 317 352 9 326 4 22 8 349 336 323 244 231 209 204 196 203 195 192 187 163 113 91 102 138 140 125 89 49
334 333 334 332 338 343 344 345 355 355 348 347 350 353 349 349 10 11 351 4 23 13 6 0 10 28 66 85 82 92 75 88 89 74 70 154 148 146 138 113 137 114 58
334 336 340 341 340 345 352 355 0 358 354 355 3 360 1 19 39 29 16 35 32 18 15 23 28 40 38 64 82 79 70 64 78 76 76 65 61 44 74 120 134 132 166
342 337 338 338 339 346 356 2 2 360 358 3 12 9 18 33 49 51 64 60 56 42 38 44 40 50 50 53 74 79 71 65 73 68 66 65 40 36 26 140 141 122 118
342 337 337 340 342 348 356 5 4 6 10 12 22 28 33 42 51 53 62 62 63 61 56 62 57 58 57 55 58 76 71 64 71 68 66 68 48 41 37 41 73 108 136
339 335 341 346 348 350 351 11 14 13 19 26 29 39 43 45 51 56 64 64 60 66 69 69 67 65 63 55 47 80 73 69 64 67 64 65 54 48 46 42 44 41 93
330 333 346 351 348 355 3 18 22 23 31 37 44 48 48 50 52 59 60 62 64 65 70 75 74 73 70 67 63 57 78 78 69 64 66 63 62 52 44 46 41 48 49
323 337 349 348 354 1 10 24 28 28 28 42 59 59 58 59 62 63 63 63 67 64 68 74 78 74 77 78 76 76 66 66 72 69 73 69 65 65 59 55 47 46 33
341 347 349 353 357 6 13 24 27 36 33 42 61 65 65 66 67 68 68 64 65 66 67 70 76 70 69 70 72 77 83 75 72 62 66 76 73 63 62 62 61 50 51
355 347 352 356 356 13 25 28 31 27 35 44 58 63 62 65 68 73 74 74 69 72 67 65 65 73 78 75 73 73 77 76 70 77 65 70 67 68 68 70 68 70 84
8 8 358 356 9 23 31 34 39 41 35 57 64 62 64 65 69 69 75 79 72 70 75 77 76 79 78 76 85 79 77 76 71 62 61 63 75 78 73 74 61 60 74
15 15 5 15 16 27 40 46 44 46 42 52 57 65 71 71 71 76 79 76 72 66 68 70 72 76 79 82 82 83 85 83 81 86 86 84 65 65 67 66 60 44 36
9 7 25 33 45 46 61 59 54 49 58 56 62 72 77 82 83 85 75 72 79 80 75 70 79 81 84 92 89 83 84 86 80 82 83 74 69 65 55 47 40 32 24
189 182 73 57 42 48 59 78 80 78 79 72 73 74 76 81 85 84 78 83 80 73 77 84 86 88 83 81 82 86 89 89 81 73 69 72 58 68 42 23 15 3 353
205 187 282 320 53 62 75 87 82 83 88 88 87 85 89 88 86 84 82 89 91 86 85 90 94 94 88 86 89 91 88 87 79 70 54 37 35 24 13 347 340 335 323
212 200 185 164 133 100 104 108 106 109 102 103 89 83 85 89 92 95 99 100 96 93 88 82 72 75 87 80 77 78 89 87 83 63 46 29 4 357 349 339 324 319 312
182 183 192 186 146 137 138 129 131 123 124 114 101 96 97 107 112 105 88 90 88 89 83 76 64 56 43 79 78 61 60 55 46 27 14 359 319 329 321 317 291 279 300
177 183 179 188 184 179 168 156 161 149 142 125 114 106 92 86 82 82 79 79 89 86 83 87 82 59 31 38 43 32 48 60 8 336 293 282 288 307 305 304 281 287 316
182 177 184 181 186 190 197 185 176 169 154 140 131 122 103 99 108 124 128 114 116 115 91 79 85 65 30 10 331 310 300 264 239 242 247 286 298 295 293 280 298 308 276
188 180 185 197 201 198 201 205 170 173 163 165 165 157 153 150 162 167 169 155 156 144 158 185 188 194 227 231 240 235 245 253 269 269 272 282 300 296 294 295 303 301 307
184 184 191 201 209 194 202 191 176 167 180 187 184 188 193 199 178 177 177 183 200 207 202 212 216 216 226 217 283 303 303 301 327 310 302 307 313 312 317 316 314 309 300
179 187 196 202 206 196 198 190 180 177 181 190 193 192 186 186 194 200 206 226 228 216 229 227 223 226 242 265 287 298 302 299 311 289 299 302 306 303 304 301 299 295 289